Flag for Liechtenstein Weather past 2 weeks in Vaduz, Liechtenstein

Now
39 °F

Fog.


Feels Like: 36 °F
Forecast: 25 / 50 °F
Wind: 5 mph from Southeast

Location: Vaduz

Current Time: Apr 2, 2015 at 6:08:28 AM

Latest Report: Apr 2, 2015 at 5:00 AM


Visibility: 5 mi

Pressure: 30.22 "Hg

Humidity: 70%

Dew point: 30 °F

Location of VaduzLocation

Historic Weather in Vaduz — Graph

°F

Vaduz temperature yesterday

Maximum temperature yesterday: 48 °F (at 3:00 AM)
Minimum temperature yesterday: 37 °F (at 2:00 PM)
Average temperature yesterday: 42 °F

Past Weeks' High & Low Weather Summary

 TemperatureHumidityPressure
High68 °F (Mar 31, 1:00 PM)96% (Mar 25, 11:00 PM)30.34 "Hg (Mar 25, 11:00 PM)
Low35 °F (Mar 28, 6:00 AM)26% (Mar 28, 2:00 PM)29.50 "Hg (Mar 25, 1:00 PM)
Average48 °F67%30.00 "Hg
* Reported Mar 18 3:00 AM — Apr 2 4:00 AM, Vaduz, Weather by CustomWeather, © 2015

Note: Actual official high and low records may vary slightly from our data, if they occured in-between our weather recording intervals... More about our weather records

Advertising

Vaduz weather history for previous 24 hours

 ConditionsComfort  
Time TempWeatherWind HumidityBarometerVisibility
4:00 AM
Thu, Apr 2
39 °FChilly.5 mph71%30.25 "HgN/A
3:00 AM39 °FChilly.3 mph72%30.27 "HgN/A
2:00 AM39 °FFog.2 mph72%30.29 "Hg5 mi
1:00 AM40 °FChilly.5 mph69%30.31 "HgN/A
12:00 AM41 °FQuite cool.2 mph58%30.32 "HgN/A
10:00 PM
Wed, Apr 1
39 °FChilly.5 mph75%30.34 "HgN/A
9:00 PM40 °FChilly.5 mph73%30.32 "HgN/A
8:00 PM37 °FFog.2 mph85%30.32 "Hg5 mi
7:00 PM38 °FChilly.7 mph78%30.30 "HgN/A
6:00 PM41 °FQuite cool.16 mph59%30.27 "HgN/A
5:00 PM40 °FLight rain. Overcast.7 mph70%30.26 "Hg4 mi
4:00 PM38 °FChilly.5 mph79%30.26 "HgN/A
3:00 PM40 °FChilly.3 mph68%30.25 "HgN/A
2:00 PM37 °FRain. Overcast.12 mph84%30.29 "Hg3 mi
1:00 PM39 °FChilly.3 mph85%30.24 "HgN/A
12:00 PM38 °FChilly.6 mph84%30.25 "HgN/A
11:00 AM40 °FLight rain. Overcast.15 mph65%30.23 "Hg4 mi
10:00 AM43 °FQuite cool.10 mph50%30.19 "HgN/A
9:00 AM43 °FQuite cool.8 mph47%30.17 "HgN/A
8:00 AM44 °FRain. Overcast.8 mph47%30.14 "Hg4 mi
7:00 AM45 °FQuite cool.12 mph45%30.09 "HgN/A
6:00 AM44 °FQuite cool.9 mph54%30.09 "HgN/A
Weather by CustomWeather, © 2015

See weather overviewHow to use our weather pages